Terminal Aerodrome Forecast
Issued by NWS Quad Cities IA IL

Home | Current Version | Previous Version | Text Only | Print | Product List | Glossary On
Versions: 1 2 3 4 5 6 7 8 9 10 11 12 13 14 15 16 17 18 19 20 21 22 23 24 25
000
FTUS43 KDVN 190521
TAFMLI
TAF
KMLI 190521Z 1906/2006 18009KT P6SM OVC040
     FM190700 18008KT P6SM OVC025
     FM190900 18006KT 2SM -DZ BR OVC007
     FM191300 13005KT 1SM -SHRA BR OVC004
     FM191700 16008KT 2SM -SHRA BR OVC007
     FM200000 20005KT 3SM -RA BR OVC006=

USA.gov is the U.S. government's official web portal to all federal, state and local government web resources and services.